Time,TemperatureF,DewpointF,PressureIn,WindDirection,WindDirectionDegrees,WindSpeedMPH,WindSpeedGustMPH,Humidity,HourlyPrecipIn,Conditions,Clouds,dailyrainin,SoftwareType,DateUTC
2013-05-10 00:09:00,56.6,55.0,29.90,WNW,284,0.0,0.0,94,0.00,,,0.00,weatherlink.com 1.10,2013-05-10 04:09:00,
2013-05-10 00:24:00,56.6,55.0,29.90,WNW,284,0.0,0.0,94,0.00,,,0.00,weatherlink.com 1.10,2013-05-10 04:24:00,
2013-05-10 00:39:00,56.8,55.0,29.90,WNW,284,0.0,0.0,93,0.00,,,0.00,weatherlink.com 1.10,2013-05-10 04:39:00,
2013-05-10 00:54:00,56.8,55.0,29.90,WNW,284,0.0,0.0,93,0.01,,,0.01,weatherlink.com 1.10,2013-05-10 04:54:00,
2013-05-10 01:09:00,56.6,55.0,29.90,WNW,284,0.0,0.0,93,0.01,,,0.01,weatherlink.com 1.10,2013-05-10 05:09:00,
2013-05-10 01:24:00,56.4,55.0,29.89,WNW,284,0.0,0.0,94,0.01,,,0.01,weatherlink.com 1.10,2013-05-10 05:24:00,
2013-05-10 01:39:00,56.5,55.0,29.89,WNW,284,0.0,1.0,94,0.01,,,0.01,weatherlink.com 1.10,2013-05-10 05:39:00,
2013-05-10 01:54:00,56.6,55.0,29.89,WNW,284,0.0,0.0,94,0.00,,,0.01,weatherlink.com 1.10,2013-05-10 05:54:00,
2013-05-10 02:09:00,56.8,55.0,29.90,WNW,284,0.0,0.0,94,0.00,,,0.01,weatherlink.com 1.10,2013-05-10 06:09:00,
2013-05-10 02:24:00,56.4,55.0,29.89,WNW,284,0.0,0.0,94,0.00,,,0.01,weatherlink.com 1.10,2013-05-10 06:24:00,
2013-05-10 02:39:00,56.0,54.0,29.89,WNW,284,0.0,0.0,94,0.00,,,0.01,weatherlink.com 1.10,2013-05-10 06:39:00,
2013-05-10 02:54:00,55.7,54.0,29.89,WNW,284,0.0,1.0,95,0.00,,,0.01,weatherlink.com 1.10,2013-05-10 06:54:00,
2013-05-10 03:09:00,55.5,54.0,29.89,WNW,284,0.0,0.0,95,0.00,,,0.01,weatherlink.com 1.10,2013-05-10 07:09:00,
2013-05-10 03:24:00,55.5,54.0,29.90,WNW,284,0.0,1.0,96,0.00,,,0.01,weatherlink.com 1.10,2013-05-10 07:24:00,
2013-05-10 03:39:00,55.4,54.0,29.90,WNW,284,0.0,0.0,95,0.00,,,0.01,weatherlink.com 1.10,2013-05-10 07:39:00,
2013-05-10 03:54:00,55.2,54.0,29.90,WNW,284,0.0,2.0,96,0.00,,,0.01,weatherlink.com 1.10,2013-05-10 07:54:00,
2013-05-10 04:09:00,54.9,54.0,29.90,WNW,284,0.0,0.0,95,0.00,,,0.01,weatherlink.com 1.10,2013-05-10 08:09:00,
2013-05-10 04:24:00,54.7,54.0,29.91,WNW,284,0.0,0.0,96,0.00,,,0.01,weatherlink.com 1.10,2013-05-10 08:24:00,
2013-05-10 04:39:00,55.0,54.0,29.91,WNW,284,0.0,2.0,97,0.00,,,0.01,weatherlink.com 1.10,2013-05-10 08:39:00,
2013-05-10 04:54:00,55.1,54.0,29.91,WNW,284,0.0,0.0,97,0.00,,,0.01,weatherlink.com 1.10,2013-05-10 08:54:00,
2013-05-10 05:09:00,55.3,55.0,29.91,WNW,284,0.0,1.0,97,0.00,,,0.01,weatherlink.com 1.10,2013-05-10 09:09:00,
2013-05-10 05:24:00,55.4,55.0,29.92,WNW,284,0.0,1.0,97,0.00,,,0.01,weatherlink.com 1.10,2013-05-10 09:24:00,
2013-05-10 05:39:00,55.4,54.0,29.93,WNW,284,0.0,1.0,96,0.00,,,0.01,weatherlink.com 1.10,2013-05-10 09:39:00,
2013-05-10 05:54:00,55.4,54.0,29.93,WNW,284,0.0,2.0,96,0.00,,,0.01,weatherlink.com 1.10,2013-05-10 09:54:00,
2013-05-10 06:09:00,55.3,55.0,29.94,West,280,0.0,5.0,97,0.00,,,0.01,weatherlink.com 1.10,2013-05-10 10:09:00,
2013-05-10 06:24:00,55.4,55.0,29.94,West,280,0.0,1.0,97,0.00,,,0.01,weatherlink.com 1.10,2013-05-10 10:24:00,
2013-05-10 06:40:00,55.7,55.0,29.94,West,281,0.0,3.0,97,0.00,,,0.01,weatherlink.com 1.10,2013-05-10 10:40:00,
2013-05-10 06:54:00,56.0,55.0,29.94,West,281,0.0,0.0,97,0.00,,,0.01,weatherlink.com 1.10,2013-05-10 10:54:00,
2013-05-10 07:09:00,56.6,56.0,29.95,West,281,0.0,1.0,98,0.01,,,0.02,weatherlink.com 1.10,2013-05-10 11:09:00,
2013-05-10 07:24:00,57.4,57.0,29.95,West,277,0.0,3.0,97,0.01,,,0.02,weatherlink.com 1.10,2013-05-10 11:24:00,
2013-05-10 07:39:00,58.3,57.0,29.95,West,277,0.0,0.0,96,0.01,,,0.02,weatherlink.com 1.10,2013-05-10 11:39:00,
2013-05-10 07:54:00,59.8,58.0,29.95,WNW,293,0.0,6.0,94,0.01,,,0.02,weatherlink.com 1.10,2013-05-10 11:54:00,
2013-05-10 08:10:00,61.7,59.0,29.94,WNW,287,0.0,4.0,90,0.00,,,0.02,weatherlink.com 1.10,2013-05-10 12:10:00,
2013-05-10 08:25:00,63.8,59.0,29.94,West,273,1.0,1.0,85,0.00,,,0.02,weatherlink.com 1.10,2013-05-10 12:25:00,
2013-05-10 08:40:00,65.7,60.0,29.94,NW,311,0.0,4.0,82,0.00,,,0.02,weatherlink.com 1.10,2013-05-10 12:40:00,
2013-05-10 08:55:00,68.0,61.0,29.95,WNW,286,0.0,3.0,79,0.00,,,0.02,weatherlink.com 1.10,2013-05-10 12:55:00,
2013-05-10 09:10:00,69.7,61.0,29.95,WNW,294,4.0,4.0,74,0.00,,,0.02,weatherlink.com 1.10,2013-05-10 13:10:00,
2013-05-10 09:25:00,70.8,61.0,29.94,West,271,1.0,4.0,71,0.00,,,0.02,weatherlink.com 1.10,2013-05-10 13:25:00,
2013-05-10 09:40:00,72.1,60.0,29.95,WNW,296,2.0,3.0,66,0.00,,,0.02,weatherlink.com 1.10,2013-05-10 13:40:00,
2013-05-10 09:55:00,73.2,61.0,29.94,WNW,286,1.0,3.0,65,0.01,,,0.03,weatherlink.com 1.10,2013-05-10 13:55:00,
2013-05-10 10:10:00,74.2,61.0,29.94,WNW,286,0.0,2.0,63,0.01,,,0.03,weatherlink.com 1.10,2013-05-10 14:10:00,
2013-05-10 10:25:00,74.1,59.0,29.94,SSE,166,1.0,4.0,59,0.01,,,0.03,weatherlink.com 1.10,2013-05-10 14:25:00,
2013-05-10 10:40:00,74.7,61.0,29.94,WNW,289,0.0,3.0,62,0.01,,,0.03,weatherlink.com 1.10,2013-05-10 14:40:00,
2013-05-10 10:55:00,76.0,59.0,29.94,SSW,199,0.0,3.0,56,0.00,,,0.03,weatherlink.com 1.10,2013-05-10 14:55:00,
2013-05-10 11:10:00,76.8,60.0,29.94,NE,55,1.0,3.0,57,0.00,,,0.03,weatherlink.com 1.10,2013-05-10 15:10:00,
2013-05-10 11:25:00,76.9,61.0,29.93,SSW,193,1.0,5.0,59,0.00,,,0.03,weatherlink.com 1.10,2013-05-10 15:25:00,
2013-05-10 11:40:00,77.6,60.0,29.93,SE,133,0.0,3.0,55,0.00,,,0.03,weatherlink.com 1.10,2013-05-10 15:40:00,
2013-05-10 11:55:00,78.7,61.0,29.92,West,270,3.0,6.0,55,0.00,,,0.03,weatherlink.com 1.10,2013-05-10 15:55:00,
2013-05-10 12:10:00,78.6,59.0,29.92,WNW,284,0.0,5.0,51,0.01,,,0.04,weatherlink.com 1.10,2013-05-10 16:10:00,
2013-05-10 12:25:00,78.2,60.0,29.92,West,259,0.0,7.0,53,0.01,,,0.04,weatherlink.com 1.10,2013-05-10 16:25:00,
2013-05-10 12:40:00,77.5,59.0,29.91,WNW,302,0.0,9.0,53,0.01,,,0.04,weatherlink.com 1.10,2013-05-10 16:40:00,
2013-05-10 12:55:00,77.3,58.0,29.91,WNW,283,0.0,6.0,52,0.01,,,0.04,weatherlink.com 1.10,2013-05-10 16:55:00,
2013-05-10 13:10:00,77.2,58.0,29.91,West,274,1.0,8.0,52,0.00,,,0.04,weatherlink.com 1.10,2013-05-10 17:10:00,
2013-05-10 13:25:00,78.0,59.0,29.91,SW,235,0.0,5.0,53,0.01,,,0.05,weatherlink.com 1.10,2013-05-10 17:25:00,
2013-05-10 13:40:00,77.9,60.0,29.90,WNW,291,2.0,5.0,54,0.01,,,0.05,weatherlink.com 1.10,2013-05-10 17:40:00,
2013-05-10 13:56:00,78.4,59.0,29.90,SW,225,2.0,6.0,52,0.01,,,0.05,weatherlink.com 1.10,2013-05-10 17:56:00,
2013-05-10 14:10:00,78.4,61.0,29.90,SW,232,0.0,3.0,55,0.01,,,0.05,weatherlink.com 1.10,2013-05-10 18:10:00,
2013-05-10 14:25:00,79.3,61.0,29.90,West,266,0.0,7.0,54,0.00,,,0.05,weatherlink.com 1.10,2013-05-10 18:25:00,
2013-05-10 14:41:00,79.7,60.0,29.89,West,269,0.0,6.0,52,0.00,,,0.05,weatherlink.com 1.10,2013-05-10 18:41:00,
2013-05-10 14:56:00,80.0,57.0,29.89,West,275,3.0,7.0,46,0.00,,,0.05,weatherlink.com 1.10,2013-05-10 18:56:00,
2013-05-10 15:11:00,80.2,58.0,29.89,West,280,2.0,4.0,47,0.00,,,0.05,weatherlink.com 1.10,2013-05-10 19:11:00,
2013-05-10 15:26:00,80.6,57.0,29.88,West,278,0.0,5.0,45,0.00,,,0.05,weatherlink.com 1.10,2013-05-10 19:26:00,
2013-05-10 15:41:00,80.7,59.0,29.88,SW,234,0.0,1.0,48,0.00,,,0.05,weatherlink.com 1.10,2013-05-10 19:41:00,
2013-05-10 15:56:00,81.1,60.0,29.87,West,273,1.0,5.0,49,0.00,,,0.05,weatherlink.com 1.10,2013-05-10 19:56:00,
2013-05-10 16:11:00,81.3,57.0,29.87,SW,221,0.0,2.0,44,0.00,,,0.05,weatherlink.com 1.10,2013-05-10 20:11:00,
2013-05-10 16:26:00,81.0,60.0,29.87,ESE,122,0.0,4.0,49,0.00,,,0.05,weatherlink.com 1.10,2013-05-10 20:26:00,
2013-05-10 16:41:00,79.5,60.0,29.87,SE,140,0.0,2.0,52,0.00,,,0.05,weatherlink.com 1.10,2013-05-10 20:41:00,
2013-05-10 16:56:00,78.0,61.0,29.87,SE,144,0.0,4.0,56,0.01,,,0.06,weatherlink.com 1.10,2013-05-10 20:56:00,
2013-05-10 17:11:00,77.0,61.0,29.87,SE,124,0.0,4.0,58,0.01,,,0.06,weatherlink.com 1.10,2013-05-10 21:11:00,
2013-05-10 17:26:00,76.4,61.0,29.87,SE,134,1.0,3.0,59,0.01,,,0.06,weatherlink.com 1.10,2013-05-10 21:26:00,
2013-05-10 17:41:00,76.3,61.0,29.87,ESE,119,0.0,5.0,59,0.00,,,0.06,weatherlink.com 1.10,2013-05-10 21:41:00,
2013-05-10 17:56:00,76.0,61.0,29.86,South,171,0.0,4.0,61,0.00,,,0.06,weatherlink.com 1.10,2013-05-10 21:56:00,
2013-05-10 18:11:00,75.8,61.0,29.86,SE,134,0.0,1.0,60,0.00,,,0.06,weatherlink.com 1.10,2013-05-10 22:11:00,
2013-05-10 18:26:00,75.5,61.0,29.85,SE,142,0.0,4.0,61,0.00,,,0.06,weatherlink.com 1.10,2013-05-10 22:26:00,
2013-05-10 18:41:00,75.1,61.0,29.84,SE,145,1.0,2.0,62,0.00,,,0.06,weatherlink.com 1.10,2013-05-10 22:41:00,
2013-05-10 18:56:00,74.6,60.0,29.85,ESE,117,0.0,2.0,61,0.00,,,0.06,weatherlink.com 1.10,2013-05-10 22:56:00,
2013-05-10 19:11:00,74.1,61.0,29.85,SE,144,1.0,2.0,63,0.01,,,0.07,weatherlink.com 1.10,2013-05-10 23:11:00,
2013-05-10 19:26:00,73.6,61.0,29.86,SE,145,0.0,2.0,64,0.01,,,0.07,weatherlink.com 1.10,2013-05-10 23:26:00,
2013-05-10 19:41:00,73.0,60.0,29.85,SE,145,0.0,1.0,65,0.01,,,0.07,weatherlink.com 1.10,2013-05-10 23:41:00,
2013-05-10 19:56:00,72.3,60.0,29.85,SE,145,0.0,2.0,66,0.01,,,0.07,weatherlink.com 1.10,2013-05-10 23:56:00,
2013-05-10 20:11:00,71.6,60.0,29.85,SE,145,0.0,1.0,68,0.00,,,0.07,weatherlink.com 1.10,2013-05-11 00:11:00,
2013-05-10 20:26:00,70.9,61.0,29.85,SE,145,0.0,1.0,70,0.00,,,0.07,weatherlink.com 1.10,2013-05-11 00:26:00,
2013-05-10 20:41:00,70.4,61.0,29.85,SSE,150,0.0,2.0,71,0.00,,,0.07,weatherlink.com 1.10,2013-05-11 00:41:00,
2013-05-10 20:56:00,70.2,60.0,29.86,SSE,158,1.0,5.0,71,0.00,,,0.07,weatherlink.com 1.10,2013-05-11 00:56:00,
2013-05-10 21:11:00,69.9,60.0,29.86,South,180,1.0,3.0,72,0.00,,,0.07,weatherlink.com 1.10,2013-05-11 01:11:00,
2013-05-10 21:26:00,69.5,60.0,29.86,South,171,3.0,4.0,72,0.00,,,0.07,weatherlink.com 1.10,2013-05-11 01:26:00,
2013-05-10 21:41:00,69.3,60.0,29.86,South,179,0.0,5.0,72,0.00,,,0.07,weatherlink.com 1.10,2013-05-11 01:41:00,
2013-05-10 21:56:00,69.2,59.0,29.86,South,176,0.0,4.0,71,0.00,,,0.07,weatherlink.com 1.10,2013-05-11 01:56:00,
2013-05-10 22:11:00,69.1,59.0,29.85,SSE,153,0.0,5.0,70,0.00,,,0.07,weatherlink.com 1.10,2013-05-11 02:11:00,
2013-05-10 22:26:00,69.0,58.0,29.85,South,176,0.0,6.0,69,0.00,,,0.07,weatherlink.com 1.10,2013-05-11 02:26:00,
2013-05-10 22:41:00,68.9,59.0,29.84,South,175,0.0,3.0,70,0.00,,,0.07,weatherlink.com 1.10,2013-05-11 02:41:00,
2013-05-10 22:56:00,68.6,58.0,29.84,South,175,0.0,2.0,70,0.00,,,0.07,weatherlink.com 1.10,2013-05-11 02:56:00,
2013-05-10 23:11:00,68.4,58.0,29.83,South,176,1.0,3.0,69,0.00,,,0.07,weatherlink.com 1.10,2013-05-11 03:11:00,
2013-05-10 23:26:00,68.3,58.0,29.85,West,267,0.0,3.0,70,0.00,,,0.07,weatherlink.com 1.10,2013-05-11 03:26:00,
2013-05-10 23:41:00,68.0,58.0,29.85,West,269,0.0,2.0,71,0.00,,,0.07,weatherlink.com 1.10,2013-05-11 03:41:00,
2013-05-10 23:56:00,67.7,58.0,29.85,West,269,0.0,1.0,72,0.00,,,0.07,weatherlink.com 1.10,2013-05-11 03:56:00,